Time,TemperatureF,DewpointF,PressureIn,WindDirection,WindDirectionDegrees,WindSpeedMPH,WindSpeedGustMPH,Humidity,HourlyPrecipIn,Conditions,Clouds,dailyrainin,SoftwareType,DateUTC
2013-11-26 00:00:00,28.5,19.3,30.21,WNW,300,0.0,0.0,68,0.00,,---,0.00,VWS V14.01,2013-11-26 06:00:00,
2013-11-26 00:02:00,28.5,19.3,30.21,WNW,300,0.0,0.0,68,0.00,,---,0.00,VWS V14.01,2013-11-26 06:02:00,
2013-11-26 00:07:00,28.5,19.3,30.21,WNW,300,0.0,0.0,68,0.00,,---,0.00,VWS V14.01,2013-11-26 06:07:00,
2013-11-26 00:12:00,28.5,19.6,30.21,WNW,300,0.0,0.0,69,0.00,,---,0.00,VWS V14.01,2013-11-26 06:12:00,
2013-11-26 00:17:00,28.5,19.6,30.21,WNW,302,0.0,0.0,69,0.00,,---,0.00,VWS V14.01,2013-11-26 06:17:00,
2013-11-26 00:22:00,28.7,19.8,30.21,NW,306,0.0,0.0,69,0.00,,---,0.00,VWS V14.01,2013-11-26 06:22:00,
2013-11-26 00:27:00,28.7,19.8,30.21,NW,309,0.0,0.0,69,0.00,,---,0.00,VWS V14.01,2013-11-26 06:27:00,
2013-11-26 00:30:00,28.7,19.8,30.20,NW,310,0.0,0.0,69,0.00,,---,0.00,VWS V14.01,2013-11-26 06:30:00,
2013-11-26 00:32:00,28.7,19.8,30.20,NW,310,0.0,0.0,69,0.00,,---,0.00,VWS V14.01,2013-11-26 06:32:00,
2013-11-26 00:37:00,28.7,19.8,30.20,NW,310,0.0,0.0,69,0.00,,---,0.00,VWS V14.01,2013-11-26 06:37:00,
2013-11-26 00:42:00,28.5,19.6,30.20,NW,310,0.0,0.0,69,0.00,,---,0.00,VWS V14.01,2013-11-26 06:42:00,
2013-11-26 00:47:00,28.5,20.0,30.20,NW,321,0.0,1.0,70,0.00,,---,0.00,VWS V14.01,2013-11-26 06:47:00,
2013-11-26 00:52:00,28.5,20.0,30.20,NW,325,0.0,1.0,70,0.00,,---,0.00,VWS V14.01,2013-11-26 06:52:00,
2013-11-26 00:57:00,28.5,20.0,30.20,NNW,329,0.0,2.0,70,0.00,,---,0.00,VWS V14.01,2013-11-26 06:57:00,
2013-11-26 01:00:00,28.7,20.2,30.19,NNW,342,0.0,2.0,70,0.00,,---,0.00,VWS V14.01,2013-11-26 07:00:00,
2013-11-26 01:02:00,28.7,20.2,30.19,NNW,342,1.0,1.0,70,0.00,,---,0.00,VWS V14.01,2013-11-26 07:02:00,
2013-11-26 01:07:00,28.7,20.2,30.19,NNW,331,1.0,2.0,70,0.00,,---,0.00,VWS V14.01,2013-11-26 07:07:00,
2013-11-26 01:12:00,28.7,20.2,30.19,NW,325,0.0,3.0,70,0.00,,---,0.00,VWS V14.01,2013-11-26 07:12:00,
2013-11-26 01:17:00,28.7,20.5,30.18,NW,319,0.0,3.0,71,0.00,,---,0.00,VWS V14.01,2013-11-26 07:17:00,
2013-11-26 01:22:00,28.8,20.6,30.18,NNW,340,0.0,3.0,71,0.00,,---,0.00,VWS V14.01,2013-11-26 07:22:00,
2013-11-26 01:27:00,28.8,20.6,30.18,NNW,338,0.0,3.0,71,0.00,,---,0.00,VWS V14.01,2013-11-26 07:27:00,
2013-11-26 01:30:00,28.8,20.6,30.18,NNW,339,0.0,3.0,71,0.00,,---,0.00,VWS V14.01,2013-11-26 07:30:00,
2013-11-26 01:32:00,28.8,20.6,30.18,NNW,332,1.0,2.0,71,0.00,,---,0.00,VWS V14.01,2013-11-26 07:32:00,
2013-11-26 01:37:00,28.7,20.5,30.18,NNW,336,2.0,3.0,71,0.00,,---,0.00,VWS V14.01,2013-11-26 07:37:00,
2013-11-26 01:42:00,28.7,20.5,30.18,NW,325,0.0,3.0,71,0.00,,---,0.00,VWS V14.01,2013-11-26 07:42:00,
2013-11-26 01:47:00,28.7,20.8,30.18,NNW,327,1.0,3.0,72,0.00,,---,0.00,VWS V14.01,2013-11-26 07:47:00,
2013-11-26 01:52:00,28.5,20.6,30.18,NNW,327,0.0,3.0,72,0.00,,---,0.00,VWS V14.01,2013-11-26 07:52:00,
2013-11-26 01:57:00,28.4,20.5,30.18,NNW,327,0.0,3.0,72,0.00,,---,0.00,VWS V14.01,2013-11-26 07:57:00,
2013-11-26 02:00:00,28.4,20.5,30.19,NNW,328,0.0,3.0,72,0.00,,---,0.00,VWS V14.01,2013-11-26 08:00:00,
2013-11-26 02:02:00,28.4,20.5,30.19,NNW,327,0.0,0.0,72,0.00,,---,0.00,VWS V14.01,2013-11-26 08:02:00,
2013-11-26 02:07:00,28.4,20.5,30.19,NNW,332,1.0,3.0,72,0.00,,---,0.00,VWS V14.01,2013-11-26 08:07:00,
2013-11-26 02:12:00,28.5,20.6,30.19,NNW,333,0.0,3.0,72,0.00,,---,0.00,VWS V14.01,2013-11-26 08:12:00,
2013-11-26 02:17:00,28.5,21.0,30.19,NW,321,1.0,3.0,73,0.00,,---,0.00,VWS V14.01,2013-11-26 08:17:00,
2013-11-26 02:22:00,28.5,21.0,30.19,NW,325,0.0,3.0,73,0.00,,---,0.00,VWS V14.01,2013-11-26 08:22:00,
2013-11-26 02:27:00,28.4,20.9,30.19,NNW,328,2.0,3.0,73,0.00,,---,0.00,VWS V14.01,2013-11-26 08:27:00,
2013-11-26 02:30:00,28.4,20.9,30.18,NNW,330,0.0,3.0,73,0.00,,---,0.00,VWS V14.01,2013-11-26 08:30:00,
2013-11-26 02:32:00,28.4,20.9,30.18,NNW,330,0.0,0.0,73,0.00,,---,0.00,VWS V14.01,2013-11-26 08:32:00,
2013-11-26 02:37:00,28.2,20.7,30.18,NNW,330,0.0,0.0,73,0.00,,---,0.00,VWS V14.01,2013-11-26 08:37:00,
2013-11-26 02:42:00,28.1,20.6,30.18,NNW,329,0.0,0.0,73,0.00,,---,0.00,VWS V14.01,2013-11-26 08:42:00,
2013-11-26 02:47:00,27.8,20.3,30.19,NNW,329,0.0,0.0,73,0.00,,---,0.00,VWS V14.01,2013-11-26 08:47:00,
2013-11-26 02:52:00,27.6,20.1,30.19,NNW,329,0.0,0.0,73,0.00,,---,0.00,VWS V14.01,2013-11-26 08:52:00,
2013-11-26 02:57:00,27.6,20.1,30.19,NNW,333,0.0,1.0,73,0.00,,---,0.00,VWS V14.01,2013-11-26 08:57:00,
2013-11-26 03:00:00,27.5,20.0,30.19,NNW,333,0.0,1.0,73,0.00,,---,0.00,VWS V14.01,2013-11-26 09:00:00,
2013-11-26 03:02:00,27.5,20.0,30.19,NNW,333,0.0,0.0,73,0.00,,---,0.00,VWS V14.01,2013-11-26 09:02:00,
2013-11-26 03:07:00,27.5,20.0,30.19,NNW,333,0.0,0.0,73,0.00,,---,0.00,VWS V14.01,2013-11-26 09:07:00,
2013-11-26 03:12:00,27.3,20.1,30.19,NNW,333,0.0,0.0,74,0.00,,---,0.00,VWS V14.01,2013-11-26 09:12:00,
2013-11-26 03:17:00,27.2,20.0,30.20,NNW,333,0.0,1.0,74,0.00,,---,0.00,VWS V14.01,2013-11-26 09:17:00,
2013-11-26 03:22:00,27.2,20.0,30.20,NNW,333,0.0,1.0,74,0.00,,---,0.00,VWS V14.01,2013-11-26 09:22:00,
2013-11-26 03:27:00,27.0,19.8,30.20,NNW,333,0.0,1.0,74,0.00,,---,0.00,VWS V14.01,2013-11-26 09:27:00,
2013-11-26 03:30:00,26.9,19.7,30.20,NNW,333,0.0,1.0,74,0.00,,---,0.00,VWS V14.01,2013-11-26 09:30:00,
2013-11-26 03:32:00,26.9,19.7,30.20,NNW,333,0.0,0.0,74,0.00,,---,0.00,VWS V14.01,2013-11-26 09:32:00,
2013-11-26 03:37:00,26.7,19.5,30.20,NNW,333,0.0,0.0,74,0.00,,---,0.00,VWS V14.01,2013-11-26 09:37:00,
2013-11-26 03:42:00,26.6,19.4,30.20,NNW,333,0.0,0.0,74,0.00,,---,0.00,VWS V14.01,2013-11-26 09:42:00,
2013-11-26 03:47:00,26.4,19.2,30.20,NNW,333,0.0,0.0,74,0.00,,---,0.00,VWS V14.01,2013-11-26 09:47:00,
2013-11-26 03:52:00,26.4,19.6,30.20,NNW,333,0.0,1.0,75,0.00,,---,0.00,VWS V14.01,2013-11-26 09:52:00,
2013-11-26 03:57:00,26.6,19.8,30.20,NNW,333,0.0,1.0,75,0.00,,---,0.00,VWS V14.01,2013-11-26 09:57:00,
2013-11-26 04:00:00,26.6,19.8,30.20,NNW,333,0.0,1.0,75,0.00,,---,0.00,VWS V14.01,2013-11-26 10:00:00,
2013-11-26 04:02:00,26.6,19.8,30.20,NNW,333,1.0,1.0,75,0.00,,---,0.00,VWS V14.01,2013-11-26 10:02:00,
2013-11-26 04:07:00,26.6,19.8,30.20,NNW,333,1.0,1.0,75,0.00,,---,0.00,VWS V14.01,2013-11-26 10:07:00,
2013-11-26 04:12:00,26.7,19.9,30.20,NNW,334,0.0,1.0,75,0.00,,---,0.00,VWS V14.01,2013-11-26 10:12:00,
2013-11-26 04:17:00,26.7,19.9,30.20,NNW,329,1.0,1.0,75,0.00,,---,0.00,VWS V14.01,2013-11-26 10:17:00,
2013-11-26 04:22:00,26.9,20.4,30.20,NNW,329,0.0,1.0,76,0.00,,---,0.00,VWS V14.01,2013-11-26 10:22:00,
2013-11-26 04:27:00,26.9,20.4,30.20,NNW,329,0.0,2.0,76,0.00,,---,0.00,VWS V14.01,2013-11-26 10:27:00,
2013-11-26 04:30:00,26.7,20.2,30.20,NNW,329,0.0,2.0,76,0.00,,---,0.00,VWS V14.01,2013-11-26 10:30:00,
2013-11-26 04:32:00,26.7,20.2,30.20,NNW,329,0.0,0.0,76,0.00,,---,0.00,VWS V14.01,2013-11-26 10:32:00,
2013-11-26 04:37:00,26.7,20.2,30.20,NNW,329,1.0,1.0,76,0.00,,---,0.00,VWS V14.01,2013-11-26 10:37:00,
2013-11-26 04:42:00,26.6,20.1,30.20,NNW,329,0.0,1.0,76,0.00,,---,0.00,VWS V14.01,2013-11-26 10:42:00,
2013-11-26 04:47:00,26.3,19.8,30.20,NNW,329,0.0,1.0,76,0.00,,---,0.00,VWS V14.01,2013-11-26 10:47:00,
2013-11-26 04:52:00,26.1,19.6,30.20,NNW,329,0.0,1.0,76,0.00,,---,0.00,VWS V14.01,2013-11-26 10:52:00,
2013-11-26 04:57:00,26.0,19.5,30.20,NNW,329,0.0,1.0,76,0.00,,---,0.00,VWS V14.01,2013-11-26 10:57:00,
2013-11-26 05:00:00,25.8,19.3,30.20,NNW,329,0.0,1.0,76,0.00,,---,0.00,VWS V14.01,2013-11-26 11:00:00,
2013-11-26 05:02:00,25.8,19.3,30.20,NNW,329,0.0,0.0,76,0.00,,---,0.00,VWS V14.01,2013-11-26 11:02:00,
2013-11-26 05:07:00,25.8,19.3,30.20,NNW,329,0.0,0.0,76,0.00,,---,0.00,VWS V14.01,2013-11-26 11:07:00,
2013-11-26 05:12:00,25.8,19.3,30.20,NNW,329,0.0,0.0,76,0.00,,---,0.00,VWS V14.01,2013-11-26 11:12:00,
2013-11-26 05:17:00,25.8,19.3,30.20,NNW,329,0.0,0.0,76,0.00,,---,0.00,VWS V14.01,2013-11-26 11:17:00,
2013-11-26 05:22:00,26.0,19.8,30.20,NNW,330,0.0,1.0,77,0.00,,---,0.00,VWS V14.01,2013-11-26 11:22:00,
2013-11-26 05:27:00,26.0,19.8,30.20,NNW,330,0.0,1.0,77,0.00,,---,0.00,VWS V14.01,2013-11-26 11:27:00,
2013-11-26 05:30:00,26.0,19.8,30.21,NNW,330,0.0,1.0,77,0.00,,---,0.00,VWS V14.01,2013-11-26 11:30:00,
2013-11-26 05:32:00,26.0,19.8,30.21,NNW,330,0.0,0.0,77,0.00,,---,0.00,VWS V14.01,2013-11-26 11:32:00,
2013-11-26 05:37:00,25.8,19.6,30.21,NNW,330,0.0,0.0,77,0.00,,---,0.00,VWS V14.01,2013-11-26 11:37:00,
2013-11-26 05:42:00,26.0,19.8,30.21,NNW,330,0.0,1.0,77,0.00,,---,0.00,VWS V14.01,2013-11-26 11:42:00,
2013-11-26 05:47:00,26.3,20.1,30.20,NNW,331,0.0,1.0,77,0.00,,---,0.00,VWS V14.01,2013-11-26 11:47:00,
2013-11-26 05:52:00,26.3,20.1,30.20,NNW,331,0.0,1.0,77,0.00,,---,0.00,VWS V14.01,2013-11-26 11:52:00,
2013-11-26 05:57:00,26.1,19.9,30.20,NNW,331,0.0,1.0,77,0.00,,---,0.00,VWS V14.01,2013-11-26 11:57:00,
2013-11-26 06:00:00,26.0,19.8,30.20,NNW,331,0.0,1.0,77,0.00,,---,0.00,VWS V14.01,2013-11-26 12:00:00,
2013-11-26 06:02:00,26.0,19.8,30.20,NNW,331,0.0,0.0,77,0.00,,---,0.00,VWS V14.01,2013-11-26 12:02:00,
2013-11-26 06:07:00,25.8,19.6,30.20,NNW,331,0.0,1.0,77,0.00,,---,0.00,VWS V14.01,2013-11-26 12:07:00,
2013-11-26 06:12:00,25.8,19.9,30.20,NNW,334,0.0,1.0,78,0.00,,---,0.00,VWS V14.01,2013-11-26 12:12:00,
2013-11-26 06:17:00,26.0,20.1,30.21,NNW,336,0.0,1.0,78,0.00,,---,0.00,VWS V14.01,2013-11-26 12:17:00,
2013-11-26 06:22:00,26.0,20.1,30.21,NNW,336,0.0,1.0,78,0.00,,---,0.00,VWS V14.01,2013-11-26 12:22:00,
2013-11-26 06:27:00,26.1,20.2,30.21,North,355,0.0,3.0,78,0.00,,---,0.00,VWS V14.01,2013-11-26 12:27:00,
2013-11-26 06:30:00,26.3,20.4,30.22,North,360,0.0,3.0,78,0.00,,---,0.00,VWS V14.01,2013-11-26 12:30:00,
2013-11-26 06:32:00,26.3,20.4,30.22,NNW,346,1.0,1.0,78,0.00,,---,0.00,VWS V14.01,2013-11-26 12:32:00,
2013-11-26 06:37:00,26.4,20.5,30.22,NNW,341,2.0,2.0,78,0.00,,---,0.00,VWS V14.01,2013-11-26 12:37:00,
2013-11-26 06:42:00,26.6,20.7,30.22,NNW,336,3.0,3.0,78,0.00,,---,0.00,VWS V14.01,2013-11-26 12:42:00,
2013-11-26 06:47:00,26.9,21.0,30.21,NW,325,0.0,3.0,78,0.00,,---,0.00,VWS V14.01,2013-11-26 12:47:00,
2013-11-26 06:52:00,26.9,21.0,30.21,NNW,335,0.0,3.0,78,0.00,,---,0.00,VWS V14.01,2013-11-26 12:52:00,
2013-11-26 06:57:00,27.0,21.1,30.21,NW,323,1.0,3.0,78,0.00,,---,0.00,VWS V14.01,2013-11-26 12:57:00,
2013-11-26 07:00:00,27.0,21.1,30.22,NNW,338,0.0,3.0,78,0.00,,---,0.00,VWS V14.01,2013-11-26 13:00:00,
2013-11-26 07:02:00,27.0,21.1,30.22,NNW,338,0.0,1.0,78,0.00,,---,0.00,VWS V14.01,2013-11-26 13:02:00,
2013-11-26 07:07:00,27.0,21.1,30.22,NNW,331,1.0,6.0,78,0.00,,---,0.00,VWS V14.01,2013-11-26 13:07:00,
2013-11-26 07:12:00,27.0,21.1,30.22,NW,323,2.0,6.0,78,0.00,,---,0.00,VWS V14.01,2013-11-26 13:12:00,
2013-11-26 07:17:00,27.0,21.4,30.23,NNW,341,0.0,6.0,79,0.00,,---,0.00,VWS V14.01,2013-11-26 13:17:00,
2013-11-26 07:22:00,26.9,21.3,30.23,NNW,343,0.0,6.0,79,0.00,,---,0.00,VWS V14.01,2013-11-26 13:22:00,
2013-11-26 07:27:00,26.9,21.3,30.23,NW,321,1.0,6.0,79,0.00,,---,0.00,VWS V14.01,2013-11-26 13:27:00,
2013-11-26 07:30:00,26.9,21.3,30.23,NW,325,0.0,6.0,79,0.00,,---,0.00,VWS V14.01,2013-11-26 13:30:00,
2013-11-26 07:32:00,26.9,21.3,30.23,NNW,342,2.0,2.0,79,0.00,,---,0.00,VWS V14.01,2013-11-26 13:32:00,
2013-11-26 07:37:00,26.9,21.3,30.23,NNW,330,2.0,3.0,79,0.00,,---,0.00,VWS V14.01,2013-11-26 13:37:00,
2013-11-26 07:42:00,26.9,21.3,30.23,NNW,331,0.0,4.0,79,0.00,,---,0.00,VWS V14.01,2013-11-26 13:42:00,
2013-11-26 07:47:00,27.0,21.4,30.23,NNW,327,0.0,4.0,79,0.00,,---,0.00,VWS V14.01,2013-11-26 13:47:00,
2013-11-26 07:52:00,27.0,21.4,30.23,NNW,339,0.0,5.0,79,0.00,,---,0.00,VWS V14.01,2013-11-26 13:52:00,
2013-11-26 07:57:00,27.0,21.4,30.23,NNW,342,1.0,5.0,79,0.00,,---,0.00,VWS V14.01,2013-11-26 13:57:00,
2013-11-26 08:00:00,27.2,21.6,30.23,NNW,329,2.0,5.0,79,0.00,,---,0.00,VWS V14.01,2013-11-26 14:00:00,
2013-11-26 08:02:00,27.2,21.6,30.23,NNW,329,0.0,2.0,79,0.00,,---,0.00,VWS V14.01,2013-11-26 14:02:00,
2013-11-26 08:07:00,27.5,21.9,30.23,NNW,331,1.0,7.0,79,0.00,,---,0.00,VWS V14.01,2013-11-26 14:07:00,
2013-11-26 08:12:00,27.6,22.2,30.23,NNW,333,0.0,7.0,80,0.00,,---,0.00,VWS V14.01,2013-11-26 14:12:00,
2013-11-26 08:17:00,27.8,22.4,30.25,NNW,336,0.0,9.0,80,0.00,,---,0.00,VWS V14.01,2013-11-26 14:17:00,
2013-11-26 08:22:00,28.1,22.7,30.25,NNW,339,2.0,9.0,80,0.00,,---,0.00,VWS V14.01,2013-11-26 14:22:00,
2013-11-26 08:27:00,28.2,22.8,30.25,NW,321,1.0,9.0,80,0.00,,---,0.00,VWS V14.01,2013-11-26 14:27:00,
2013-11-26 08:30:00,28.4,23.0,30.25,NNW,333,1.0,9.0,80,0.00,,---,0.00,VWS V14.01,2013-11-26 14:30:00,
2013-11-26 08:32:00,28.5,23.1,30.25,NNW,339,2.0,5.0,80,0.00,,---,0.00,VWS V14.01,2013-11-26 14:32:00,
2013-11-26 08:37:00,28.8,23.4,30.25,NNW,327,5.0,7.0,80,0.00,,---,0.00,VWS V14.01,2013-11-26 14:37:00,
2013-11-26 08:42:00,29.1,23.7,30.25,NNW,339,1.0,7.0,80,0.00,,---,0.00,VWS V14.01,2013-11-26 14:42:00,
2013-11-26 08:47:00,29.5,24.1,30.26,NW,309,3.0,7.0,80,0.00,,---,0.00,VWS V14.01,2013-11-26 14:47:00,
2013-11-26 08:52:00,30.0,24.6,30.26,North,350,0.0,9.0,80,0.00,,---,0.00,VWS V14.01,2013-11-26 14:52:00,
2013-11-26 08:57:00,30.6,25.2,30.26,North,11,6.0,10.0,80,0.00,,---,0.00,VWS V14.01,2013-11-26 14:57:00,
2013-11-26 09:00:00,31.0,25.6,30.26,North,350,6.0,11.0,80,0.00,,---,0.00,VWS V14.01,2013-11-26 15:00:00,
2013-11-26 09:02:00,31.2,25.8,30.26,NNW,347,8.0,9.0,80,0.00,,---,0.00,VWS V14.01,2013-11-26 15:02:00,
2013-11-26 09:07:00,31.5,26.0,30.26,North,360,11.0,14.0,80,0.00,,---,0.00,VWS V14.01,2013-11-26 15:07:00,
2013-11-26 09:12:00,31.6,25.9,30.26,North,350,9.0,15.0,79,0.00,,---,0.00,VWS V14.01,2013-11-26 15:12:00,
2013-11-26 09:17:00,31.8,26.0,30.26,NNW,333,1.0,15.0,79,0.00,,---,0.00,VWS V14.01,2013-11-26 15:17:00,
2013-11-26 09:22:00,31.9,26.1,30.26,North,355,7.0,15.0,79,0.00,,---,0.00,VWS V14.01,2013-11-26 15:22:00,
2013-11-26 09:27:00,32.2,26.4,30.26,North,355,7.0,15.0,79,0.00,,---,0.00,VWS V14.01,2013-11-26 15:27:00,
2013-11-26 09:30:00,32.4,26.3,30.26,NNW,336,11.0,15.0,78,0.00,,---,0.00,VWS V14.01,2013-11-26 15:30:00,
2013-11-26 09:32:00,32.4,26.3,30.26,NW,320,7.0,12.0,78,0.00,,---,0.00,VWS V14.01,2013-11-26 15:32:00,
2013-11-26 09:37:00,32.5,26.4,30.26,North,9,9.0,12.0,78,0.00,,---,0.00,VWS V14.01,2013-11-26 15:37:00,
2013-11-26 09:42:00,32.8,26.7,30.26,North,355,8.0,14.0,78,0.00,,---,0.00,VWS V14.01,2013-11-26 15:42:00,
2013-11-26 09:47:00,32.8,26.7,30.28,North,9,4.0,17.0,78,0.00,,---,0.00,VWS V14.01,2013-11-26 15:47:00,
2013-11-26 09:52:00,33.1,26.7,30.28,WNW,301,4.0,20.0,77,0.00,,---,0.00,VWS V14.01,2013-11-26 15:52:00,
2013-11-26 09:57:00,32.9,26.2,30.28,North,360,6.0,20.0,76,0.00,,---,0.00,VWS V14.01,2013-11-26 15:57:00,
2013-11-26 10:00:00,33.1,26.4,30.28,NNW,342,6.0,20.0,76,0.00,,---,0.00,VWS V14.01,2013-11-26 16:00:00,
2013-11-26 10:02:00,33.2,26.5,30.28,NNW,339,5.0,8.0,76,0.00,,---,0.00,VWS V14.01,2013-11-26 16:02:00,
2013-11-26 10:07:00,33.4,26.7,30.28,NNW,343,5.0,18.0,76,0.00,,---,0.00,VWS V14.01,2013-11-26 16:07:00,
2013-11-26 10:12:00,33.8,27.0,30.28,NNW,331,6.0,18.0,76,0.00,,---,0.00,VWS V14.01,2013-11-26 16:12:00,
2013-11-26 10:17:00,34.0,26.9,30.28,NNW,334,6.0,18.0,75,0.00,,---,0.00,VWS V14.01,2013-11-26 16:17:00,
2013-11-26 10:22:00,33.8,26.4,30.28,NNE,14,4.0,18.0,74,0.00,,---,0.00,VWS V14.01,2013-11-26 16:22:00,
2013-11-26 10:27:00,33.5,26.1,30.28,NW,306,9.0,18.0,74,0.00,,---,0.00,VWS V14.01,2013-11-26 16:27:00,
2013-11-26 10:30:00,33.4,25.7,30.28,North,5,5.0,18.0,73,0.00,,---,0.00,VWS V14.01,2013-11-26 16:30:00,
2013-11-26 10:32:00,33.2,25.5,30.28,NNW,333,15.0,17.0,73,0.00,,---,0.00,VWS V14.01,2013-11-26 16:32:00,
2013-11-26 10:37:00,32.9,25.2,30.28,North,360,6.0,17.0,73,0.00,,---,0.00,VWS V14.01,2013-11-26 16:37:00,
2013-11-26 10:42:00,32.8,25.1,30.28,North,5,8.0,23.0,73,0.00,,---,0.00,VWS V14.01,2013-11-26 16:42:00,
2013-11-26 10:47:00,32.5,24.5,30.28,NNW,346,11.0,25.0,72,0.00,,---,0.00,VWS V14.01,2013-11-26 16:47:00,
2013-11-26 10:52:00,32.2,24.2,30.28,North,355,13.0,25.0,72,0.00,,---,0.00,VWS V14.01,2013-11-26 16:52:00,
2013-11-26 10:57:00,32.2,24.2,30.28,NNE,28,5.0,25.0,72,0.00,,---,0.00,VWS V14.01,2013-11-26 16:57:00,
2013-11-26 11:00:00,32.2,24.2,30.28,North,360,10.0,25.0,72,0.00,,---,0.00,VWS V14.01,2013-11-26 17:00:00,
2013-11-26 11:02:00,32.2,24.2,30.28,NNW,327,6.0,10.0,72,0.00,,---,0.00,VWS V14.01,2013-11-26 17:02:00,
2013-11-26 11:07:00,32.4,24.4,30.28,NNW,337,16.0,19.0,72,0.00,,---,0.00,VWS V14.01,2013-11-26 17:07:00,
2013-11-26 11:12:00,32.4,24.1,30.28,NNE,32,9.0,23.0,71,0.00,,---,0.00,VWS V14.01,2013-11-26 17:12:00,
2013-11-26 11:17:00,32.2,23.9,30.28,North,360,4.0,23.0,71,0.00,,---,0.00,VWS V14.01,2013-11-26 17:17:00,
2013-11-26 11:22:00,32.2,23.9,30.28,NNW,343,12.0,23.0,71,0.00,,---,0.00,VWS V14.01,2013-11-26 17:22:00,
2013-11-26 11:27:00,32.2,23.9,30.28,NNW,331,8.0,23.0,71,0.00,,---,0.00,VWS V14.01,2013-11-26 17:27:00,
2013-11-26 11:30:00,32.4,23.7,30.28,North,5,9.0,23.0,70,0.00,,---,0.00,VWS V14.01,2013-11-26 17:30:00,
2013-11-26 11:32:00,32.4,23.7,30.28,North,360,15.0,15.0,70,0.00,,---,0.00,VWS V14.01,2013-11-26 17:32:00,
2013-11-26 11:37:00,32.4,23.7,30.28,NNW,342,12.0,25.0,70,0.00,,---,0.00,VWS V14.01,2013-11-26 17:37:00,
2013-11-26 11:42:00,32.4,23.7,30.28,NNW,343,9.0,25.0,70,0.00,,---,0.00,VWS V14.01,2013-11-26 17:42:00,
2013-11-26 11:47:00,32.5,23.8,30.28,NNE,14,14.0,25.0,70,0.00,,---,0.00,VWS V14.01,2013-11-26 17:47:00,
2013-11-26 11:52:00,32.7,24.0,30.28,North,5,6.0,25.0,70,0.00,,---,0.00,VWS V14.01,2013-11-26 17:52:00,
2013-11-26 11:57:00,32.9,23.9,30.28,North,5,9.0,25.0,69,0.00,,---,0.00,VWS V14.01,2013-11-26 17:57:00,
2013-11-26 12:00:00,33.1,24.0,30.28,North,355,9.0,25.0,69,0.00,,---,0.00,VWS V14.01,2013-11-26 18:00:00,
2013-11-26 12:02:00,33.1,24.0,30.28,North,9,9.0,12.0,69,0.00,,---,0.00,VWS V14.01,2013-11-26 18:02:00,
2013-11-26 12:07:00,33.1,24.0,30.28,NNW,336,11.0,15.0,69,0.00,,---,0.00,VWS V14.01,2013-11-26 18:07:00,
2013-11-26 12:12:00,33.2,24.1,30.28,North,355,12.0,15.0,69,0.00,,---,0.00,VWS V14.01,2013-11-26 18:12:00,
2013-11-26 12:17:00,33.2,22.7,30.28,NNW,347,15.0,18.0,65,0.00,,---,0.00,VWS V14.01,2013-11-26 18:17:00,
2013-11-26 12:22:00,33.5,24.1,30.28,NNE,24,6.0,18.0,68,0.00,,---,0.00,VWS V14.01,2013-11-26 18:22:00,
2013-11-26 12:27:00,34.3,24.9,30.28,NNE,33,10.0,20.0,68,0.00,,---,0.00,VWS V14.01,2013-11-26 18:27:00,
2013-11-26 12:30:00,34.3,24.9,30.28,NNW,333,8.0,20.0,68,0.00,,---,0.00,VWS V14.01,2013-11-26 18:30:00,
2013-11-26 12:32:00,34.3,24.9,30.28,North,360,9.0,11.0,68,0.00,,---,0.00,VWS V14.01,2013-11-26 18:32:00,
2013-11-26 12:37:00,34.9,25.4,30.28,NNE,12,8.0,15.0,68,0.00,,---,0.00,VWS V14.01,2013-11-26 18:37:00,
2013-11-26 12:42:00,34.9,25.4,30.28,NNE,30,3.0,17.0,68,0.00,,---,0.00,VWS V14.01,2013-11-26 18:42:00,
2013-11-26 12:47:00,34.7,24.9,30.27,North,5,11.0,19.0,67,0.00,,---,0.00,VWS V14.01,2013-11-26 18:47:00,
2013-11-26 12:52:00,34.9,25.1,30.27,North,9,14.0,19.0,67,0.00,,---,0.00,VWS V14.01,2013-11-26 18:52:00,
2013-11-26 12:57:00,34.9,25.1,30.27,North,349,18.0,19.0,67,0.00,,---,0.00,VWS V14.01,2013-11-26 18:57:00,
2013-11-26 13:00:00,34.7,24.9,30.27,North,360,8.0,21.0,67,0.00,,---,0.00,VWS V14.01,2013-11-26 19:00:00,
2013-11-26 13:02:00,34.7,24.5,30.27,North,355,3.0,11.0,66,0.00,,---,0.00,VWS V14.01,2013-11-26 19:02:00,
2013-11-26 13:07:00,35.0,25.2,30.27,NNE,15,5.0,16.0,67,0.00,,---,0.00,VWS V14.01,2013-11-26 19:07:00,
2013-11-26 13:12:00,35.6,25.4,30.27,NNW,333,8.0,18.0,66,0.00,,---,0.00,VWS V14.01,2013-11-26 19:12:00,
2013-11-26 13:17:00,35.5,25.3,30.28,NW,319,14.0,18.0,66,0.00,,---,0.00,VWS V14.01,2013-11-26 19:17:00,
2013-11-26 13:22:00,35.5,24.9,30.28,NW,322,9.0,18.0,65,0.00,,---,0.00,VWS V14.01,2013-11-26 19:22:00,
2013-11-26 13:27:00,35.6,25.0,30.28,North,5,10.0,18.0,65,0.00,,---,0.00,VWS V14.01,2013-11-26 19:27:00,
2013-11-26 13:30:00,35.6,25.0,30.28,North,355,9.0,18.0,65,0.00,,---,0.00,VWS V14.01,2013-11-26 19:30:00,
2013-11-26 13:32:00,35.6,25.0,30.28,North,355,9.0,14.0,65,0.00,,---,0.00,VWS V14.01,2013-11-26 19:32:00,
2013-11-26 13:37:00,35.5,24.5,30.28,NW,324,10.0,17.0,64,0.00,,---,0.00,VWS V14.01,2013-11-26 19:37:00,
2013-11-26 13:42:00,35.9,24.9,30.28,NNW,348,9.0,17.0,64,0.00,,---,0.00,VWS V14.01,2013-11-26 19:42:00,
2013-11-26 13:46:00,36.2,25.2,30.28,NNE,23,11.0,17.0,64,0.00,,---,0.00,VWS V14.01,2013-11-26 19:46:00,
2013-11-26 13:51:00,36.6,25.6,30.28,North,360,6.0,17.0,64,0.00,,---,0.00,VWS V14.01,2013-11-26 19:51:00,
2013-11-26 13:56:00,36.3,24.9,30.28,North,355,11.0,18.0,63,0.00,,---,0.00,VWS V14.01,2013-11-26 19:56:00,
2013-11-26 14:00:00,35.9,24.5,30.28,NNW,340,11.0,18.0,63,0.00,,---,0.00,VWS V14.01,2013-11-26 20:00:00,
2013-11-26 14:01:00,35.9,24.5,30.28,NNW,335,15.0,15.0,63,0.00,,---,0.00,VWS V14.01,2013-11-26 20:01:00,
2013-11-26 14:06:00,35.9,24.5,30.28,North,355,3.0,15.0,63,0.00,,---,0.00,VWS V14.01,2013-11-26 20:06:00,
2013-11-26 14:11:00,35.9,24.2,30.28,North,355,11.0,19.0,62,0.00,,---,0.00,VWS V14.01,2013-11-26 20:11:00,
2013-11-26 14:17:00,35.6,23.9,30.28,North,355,3.0,19.0,62,0.00,,---,0.00,VWS V14.01,2013-11-26 20:17:00,
2013-11-26 14:22:00,35.8,24.1,30.28,North,5,7.0,19.0,62,0.00,,---,0.00,VWS V14.01,2013-11-26 20:22:00,
2013-11-26 14:27:00,36.2,24.5,30.28,NNW,346,9.0,19.0,62,0.00,,---,0.00,VWS V14.01,2013-11-26 20:27:00,
2013-11-26 14:30:00,36.5,24.3,30.27,North,355,4.0,19.0,61,0.00,,---,0.00,VWS V14.01,2013-11-26 20:30:00,
2013-11-26 14:32:00,36.6,24.4,30.27,North,351,5.0,11.0,61,0.00,,---,0.00,VWS V14.01,2013-11-26 20:32:00,
2013-11-26 14:37:00,36.5,24.0,30.27,North,5,12.0,18.0,60,0.00,,---,0.00,VWS V14.01,2013-11-26 20:37:00,
2013-11-26 14:42:00,36.3,23.8,30.27,NNE,24,6.0,18.0,60,0.00,,---,0.00,VWS V14.01,2013-11-26 20:42:00,
2013-11-26 14:47:00,36.2,23.3,30.28,NNW,329,2.0,18.0,59,0.00,,---,0.00,VWS V14.01,2013-11-26 20:47:00,
2013-11-26 14:52:00,36.2,23.3,30.28,NNW,341,9.0,18.0,59,0.00,,---,0.00,VWS V14.01,2013-11-26 20:52:00,
2013-11-26 14:57:00,36.3,23.0,30.28,North,360,12.0,18.0,58,0.00,,---,0.00,VWS V14.01,2013-11-26 20:57:00,
2013-11-26 15:00:00,36.2,22.9,30.28,NNE,21,5.0,18.0,58,0.00,,---,0.00,VWS V14.01,2013-11-26 21:00:00,
2013-11-26 15:02:00,36.2,22.9,30.28,NNE,15,5.0,10.0,58,0.00,,---,0.00,VWS V14.01,2013-11-26 21:02:00,
2013-11-26 15:07:00,36.3,23.0,30.28,NNW,344,9.0,17.0,58,0.00,,---,0.00,VWS V14.01,2013-11-26 21:07:00,
2013-11-26 15:12:00,36.0,22.3,30.28,NNW,329,5.0,19.0,57,0.00,,---,0.00,VWS V14.01,2013-11-26 21:12:00,
2013-11-26 15:17:00,35.8,22.1,30.28,NE,42,2.0,19.0,57,0.00,,---,0.00,VWS V14.01,2013-11-26 21:17:00,
2013-11-26 15:22:00,35.8,22.1,30.28,North,10,7.0,19.0,57,0.00,,---,0.00,VWS V14.01,2013-11-26 21:22:00,
2013-11-26 15:27:00,35.6,21.9,30.28,NNE,15,10.0,19.0,57,0.00,,---,0.00,VWS V14.01,2013-11-26 21:27:00,
2013-11-26 15:30:00,35.6,21.5,30.28,NW,324,6.0,19.0,56,0.00,,---,0.00,VWS V14.01,2013-11-26 21:30:00,
2013-11-26 15:32:00,35.6,21.5,30.28,NNE,20,10.0,11.0,56,0.00,,---,0.00,VWS V14.01,2013-11-26 21:32:00,
2013-11-26 15:37:00,35.6,21.0,30.28,North,5,9.0,16.0,55,0.00,,---,0.00,VWS V14.01,2013-11-26 21:37:00,
2013-11-26 15:42:00,35.5,21.0,30.28,NNW,337,5.0,16.0,55,0.00,,---,0.00,VWS V14.01,2013-11-26 21:42:00,
2013-11-26 15:47:00,35.5,21.0,30.29,NNW,348,8.0,16.0,55,0.00,,---,0.00,VWS V14.01,2013-11-26 21:47:00,
2013-11-26 15:51:00,35.5,20.5,30.29,NNW,348,2.0,16.0,54,0.00,,---,0.00,VWS V14.01,2013-11-26 21:51:00,
2013-11-26 15:56:00,35.2,20.2,30.29,NNW,348,10.0,16.0,54,0.00,,---,0.00,VWS V14.01,2013-11-26 21:56:00,
2013-11-26 16:00:00,35.0,20.0,30.29,NNW,342,7.0,16.0,54,0.00,,---,0.00,VWS V14.01,2013-11-26 22:00:00,
2013-11-26 16:01:00,35.0,20.0,30.29,NNW,329,6.0,11.0,54,0.00,,---,0.00,VWS V14.01,2013-11-26 22:01:00,
2013-11-26 16:06:00,34.9,20.0,30.29,North,355,8.0,13.0,54,0.00,,---,0.00,VWS V14.01,2013-11-26 22:06:00,
2013-11-26 16:11:00,34.7,19.8,30.29,NW,326,7.0,15.0,54,0.00,,---,0.00,VWS V14.01,2013-11-26 22:11:00,
2013-11-26 16:16:00,34.7,19.8,30.30,NNW,334,10.0,15.0,54,0.00,,---,0.00,VWS V14.01,2013-11-26 22:16:00,
2013-11-26 16:21:00,34.4,19.0,30.30,NNW,348,12.0,15.0,53,0.00,,---,0.00,VWS V14.01,2013-11-26 22:21:00,
2013-11-26 16:26:00,34.3,19.0,30.30,NNW,340,7.0,15.0,53,0.00,,---,0.00,VWS V14.01,2013-11-26 22:26:00,
2013-11-26 16:30:00,34.0,18.7,30.30,NNW,339,8.0,15.0,53,0.00,,---,0.00,VWS V14.01,2013-11-26 22:30:00,
2013-11-26 16:31:00,34.0,18.7,30.30,North,355,5.0,11.0,53,0.00,,---,0.00,VWS V14.01,2013-11-26 22:31:00,
2013-11-26 16:36:00,33.7,18.4,30.30,NNW,337,10.0,14.0,53,0.00,,---,0.00,VWS V14.01,2013-11-26 22:36:00,
2013-11-26 16:41:00,33.7,18.8,30.30,NNW,336,6.0,14.0,54,0.00,,---,0.00,VWS V14.01,2013-11-26 22:41:00,
2013-11-26 16:46:00,33.4,18.6,30.31,NNW,340,1.0,14.0,54,0.00,,---,0.00,VWS V14.01,2013-11-26 22:46:00,
2013-11-26 16:51:00,33.1,18.3,30.31,NNW,348,6.0,14.0,54,0.00,,---,0.00,VWS V14.01,2013-11-26 22:51:00,
2013-11-26 16:56:00,32.9,17.7,30.31,NNW,340,6.0,14.0,53,0.00,,---,0.00,VWS V14.01,2013-11-26 22:56:00,
2013-11-26 17:00:00,32.8,17.6,30.31,North,355,4.0,14.0,53,0.00,,---,0.00,VWS V14.01,2013-11-26 23:00:00,
2013-11-26 17:01:00,32.7,17.5,30.31,North,5,6.0,7.0,53,0.00,,---,0.00,VWS V14.01,2013-11-26 23:01:00,
2013-11-26 17:06:00,32.5,17.7,30.31,NNW,328,5.0,11.0,54,0.00,,---,0.00,VWS V14.01,2013-11-26 23:06:00,
2013-11-26 17:11:00,32.4,17.6,30.31,North,355,5.0,12.0,54,0.00,,---,0.00,VWS V14.01,2013-11-26 23:11:00,
2013-11-26 17:16:00,32.1,17.3,30.33,North,5,5.0,12.0,54,0.00,,---,0.00,VWS V14.01,2013-11-26 23:16:00,
2013-11-26 17:21:00,31.8,17.1,30.33,North,360,4.0,12.0,54,0.00,,---,0.00,VWS V14.01,2013-11-26 23:21:00,
2013-11-26 17:26:00,31.5,17.2,30.33,NNE,26,14.0,14.0,55,0.00,,---,0.00,VWS V14.01,2013-11-26 23:26:00,
2013-11-26 17:30:00,30.9,16.6,30.34,North,5,7.0,15.0,55,0.00,,---,0.00,VWS V14.01,2013-11-26 23:30:00,
2013-11-26 17:31:00,30.9,16.6,30.34,NE,51,7.0,12.0,55,0.00,,---,0.00,VWS V14.01,2013-11-26 23:31:00,
2013-11-26 17:36:00,30.4,16.2,30.34,NNE,20,10.0,13.0,55,0.00,,---,0.00,VWS V14.01,2013-11-26 23:36:00,
2013-11-26 17:41:00,30.1,15.9,30.34,North,9,8.0,13.0,55,0.00,,---,0.00,VWS V14.01,2013-11-26 23:41:00,
2013-11-26 17:46:00,30.0,16.2,30.34,NNW,339,8.0,13.0,56,0.00,,---,0.00,VWS V14.01,2013-11-26 23:46:00,
2013-11-26 17:51:00,29.8,16.0,30.34,North,11,5.0,13.0,56,0.00,,---,0.00,VWS V14.01,2013-11-26 23:51:00,
2013-11-26 17:56:00,29.5,15.8,30.34,NNE,21,5.0,13.0,56,0.00,,---,0.00,VWS V14.01,2013-11-26 23:56:00,
2013-11-26 18:00:00,29.4,15.7,30.35,North,5,5.0,13.0,56,0.00,,---,0.00,VWS V14.01,2013-11-27 00:00:00,
2013-11-26 18:01:00,29.4,15.7,30.35,NNE,17,4.0,9.0,56,0.00,,---,0.00,VWS V14.01,2013-11-27 00:01:00,
2013-11-26 18:06:00,29.1,15.4,30.35,NNE,15,7.0,11.0,56,0.00,,---,0.00,VWS V14.01,2013-11-27 00:06:00,
2013-11-26 18:11:00,29.0,15.3,30.35,NE,55,6.0,13.0,56,0.00,,---,0.00,VWS V14.01,2013-11-27 00:11:00,
2013-11-26 18:16:00,28.7,15.0,30.35,NNW,340,7.0,13.0,56,0.00,,---,0.00,VWS V14.01,2013-11-27 00:16:00,
2013-11-26 18:21:00,28.5,14.8,30.35,North,360,5.0,13.0,56,0.00,,---,0.00,VWS V14.01,2013-11-27 00:21:00,
2013-11-26 18:26:00,28.4,14.7,30.35,North,5,5.0,13.0,56,0.00,,---,0.00,VWS V14.01,2013-11-27 00:26:00,
2013-11-26 18:30:00,28.2,14.9,30.36,NE,34,3.0,15.0,57,0.00,,---,0.00,VWS V14.01,2013-11-27 00:30:00,
2013-11-26 18:31:00,28.2,14.9,30.36,North,355,8.0,8.0,57,0.00,,---,0.00,VWS V14.01,2013-11-27 00:31:00,
2013-11-26 18:36:00,28.1,14.8,30.36,NNE,13,3.0,13.0,57,0.00,,---,0.00,VWS V14.01,2013-11-27 00:36:00,
2013-11-26 18:41:00,27.9,14.6,30.36,NNE,23,4.0,13.0,57,0.00,,---,0.00,VWS V14.01,2013-11-27 00:41:00,
2013-11-26 18:46:00,27.8,14.6,30.36,NNE,23,7.0,13.0,57,0.00,,---,0.00,VWS V14.01,2013-11-27 00:46:00,
2013-11-26 18:51:00,27.6,14.4,30.36,NNW,346,7.0,13.0,57,0.00,,---,0.00,VWS V14.01,2013-11-27 00:51:00,
2013-11-26 18:56:00,27.5,14.3,30.36,NNE,17,5.0,13.0,57,0.00,,---,0.00,VWS V14.01,2013-11-27 00:56:00,
2013-11-26 19:00:00,27.5,14.3,30.37,North,355,4.0,13.0,57,0.00,,---,0.00,VWS V14.01,2013-11-27 01:00:00,
2013-11-26 19:01:00,27.5,14.3,30.37,NE,56,2.0,6.0,57,0.00,,---,0.00,VWS V14.01,2013-11-27 01:01:00,
2013-11-26 19:06:00,27.3,14.1,30.37,North,355,5.0,8.0,57,0.00,,---,0.00,VWS V14.01,2013-11-27 01:06:00,
2013-11-26 19:11:00,27.2,14.0,30.37,NNE,33,6.0,10.0,57,0.00,,---,0.00,VWS V14.01,2013-11-27 01:11:00,
2013-11-26 19:16:00,27.0,14.2,30.38,NNE,14,4.0,10.0,58,0.00,,---,0.00,VWS V14.01,2013-11-27 01:16:00,
2013-11-26 19:21:00,27.0,14.2,30.38,North,9,4.0,10.0,58,0.00,,---,0.00,VWS V14.01,2013-11-27 01:21:00,
2013-11-26 19:26:00,27.0,14.2,30.38,NNW,336,7.0,10.0,58,0.00,,---,0.00,VWS V14.01,2013-11-27 01:26:00,
2013-11-26 19:30:00,26.9,14.1,30.38,NNW,330,5.0,10.0,58,0.00,,---,0.00,VWS V14.01,2013-11-27 01:30:00,
2013-11-26 19:31:00,26.9,14.1,30.38,North,349,4.0,6.0,58,0.00,,---,0.00,VWS V14.01,2013-11-27 01:31:00,
2013-11-26 19:36:00,26.7,13.9,30.38,North,355,4.0,13.0,58,0.00,,---,0.00,VWS V14.01,2013-11-27 01:36:00,
2013-11-26 19:41:00,26.6,13.8,30.38,NNW,343,5.0,13.0,58,0.00,,---,0.00,VWS V14.01,2013-11-27 01:41:00,
2013-11-26 19:46:00,26.6,13.8,30.39,NNW,341,10.0,13.0,58,0.00,,---,0.00,VWS V14.01,2013-11-27 01:46:00,
2013-11-26 19:51:00,26.4,13.6,30.39,NNE,28,4.0,16.0,58,0.00,,---,0.00,VWS V14.01,2013-11-27 01:51:00,
2013-11-26 19:56:00,26.1,13.4,30.39,NNW,333,7.0,16.0,58,0.00,,---,0.00,VWS V14.01,2013-11-27 01:56:00,
2013-11-26 20:00:00,26.0,13.3,30.40,NNE,24,4.0,16.0,58,0.00,,---,0.00,VWS V14.01,2013-11-27 02:00:00,
2013-11-26 20:01:00,26.0,13.3,30.40,NE,45,5.0,6.0,58,0.00,,---,0.00,VWS V14.01,2013-11-27 02:01:00,
2013-11-26 20:06:00,25.8,13.1,30.40,North,5,4.0,10.0,58,0.00,,---,0.00,VWS V14.01,2013-11-27 02:06:00,
2013-11-26 20:11:00,25.7,13.0,30.40,North,355,4.0,10.0,58,0.00,,---,0.00,VWS V14.01,2013-11-27 02:11:00,
2013-11-26 20:16:00,25.7,13.0,30.40,NNW,333,4.0,11.0,58,0.00,,---,0.00,VWS V14.01,2013-11-27 02:16:00,
2013-11-26 20:21:00,25.6,13.3,30.40,North,350,5.0,11.0,59,0.00,,---,0.00,VWS V14.01,2013-11-27 02:21:00,
2013-11-26 20:26:00,25.4,13.1,30.40,North,355,4.0,11.0,59,0.00,,---,0.00,VWS V14.01,2013-11-27 02:26:00,
2013-11-26 20:30:00,25.3,13.0,30.40,North,5,6.0,11.0,59,0.00,,---,0.00,VWS V14.01,2013-11-27 02:30:00,
2013-11-26 20:31:00,25.3,13.0,30.40,North,11,5.0,7.0,59,0.00,,---,0.00,VWS V14.01,2013-11-27 02:31:00,
2013-11-26 20:36:00,25.1,12.8,30.40,NE,42,6.0,9.0,59,0.00,,---,0.00,VWS V14.01,2013-11-27 02:36:00,
2013-11-26 20:41:00,25.0,12.7,30.40,NW,306,1.0,9.0,59,0.00,,---,0.00,VWS V14.01,2013-11-27 02:41:00,
2013-11-26 20:46:00,25.0,12.7,30.41,North,349,3.0,10.0,59,0.00,,---,0.00,VWS V14.01,2013-11-27 02:46:00,
2013-11-26 20:51:00,24.8,12.5,30.41,NNW,338,4.0,10.0,59,0.00,,---,0.00,VWS V14.01,2013-11-27 02:51:00,
2013-11-26 20:56:00,24.7,12.0,30.41,NNE,13,4.0,10.0,58,0.00,,---,0.00,VWS V14.01,2013-11-27 02:56:00,
2013-11-26 21:00:00,24.4,11.8,30.41,NNW,336,3.0,10.0,58,0.00,,---,0.00,VWS V14.01,2013-11-27 03:00:00,
2013-11-26 21:01:00,24.4,11.8,30.41,NW,325,3.0,4.0,58,0.00,,---,0.00,VWS V14.01,2013-11-27 03:01:00,
2013-11-26 21:06:00,24.4,11.8,30.41,NNW,346,3.0,7.0,58,0.00,,---,0.00,VWS V14.01,2013-11-27 03:06:00,
2013-11-26 21:11:00,24.2,11.6,30.41,NW,325,2.0,7.0,58,0.00,,---,0.00,VWS V14.01,2013-11-27 03:11:00,
2013-11-26 21:16:00,24.1,11.5,30.41,NNW,339,4.0,8.0,58,0.00,,---,0.00,VWS V14.01,2013-11-27 03:16:00,
2013-11-26 21:21:00,23.9,11.3,30.41,North,355,2.0,9.0,58,0.00,,---,0.00,VWS V14.01,2013-11-27 03:21:00,
2013-11-26 21:26:00,23.8,11.2,30.41,North,350,2.0,9.0,58,0.00,,---,0.00,VWS V14.01,2013-11-27 03:26:00,
2013-11-26 21:30:00,23.6,11.0,30.41,North,355,2.0,9.0,58,0.00,,---,0.00,VWS V14.01,2013-11-27 03:30:00,
2013-11-26 21:31:00,23.6,11.0,30.41,North,355,2.0,3.0,58,0.00,,---,0.00,VWS V14.01,2013-11-27 03:31:00,
2013-11-26 21:36:00,23.6,11.0,30.41,North,355,1.0,6.0,58,0.00,,---,0.00,VWS V14.01,2013-11-27 03:36:00,
2013-11-26 21:41:00,23.5,10.9,30.41,NNW,337,0.0,6.0,58,0.00,,---,0.00,VWS V14.01,2013-11-27 03:41:00,
2013-11-26 21:46:00,23.3,10.7,30.41,NNW,340,3.0,6.0,58,0.00,,---,0.00,VWS V14.01,2013-11-27 03:46:00,
2013-11-26 21:51:00,23.2,10.6,30.41,NNW,348,1.0,6.0,58,0.00,,---,0.00,VWS V14.01,2013-11-27 03:51:00,
2013-11-26 21:56:00,23.0,10.4,30.41,NNW,344,0.0,6.0,58,0.00,,---,0.00,VWS V14.01,2013-11-27 03:56:00,
2013-11-26 22:00:00,23.0,10.4,30.42,North,355,2.0,8.0,58,0.00,,---,0.00,VWS V14.01,2013-11-27 04:00:00,
2013-11-26 22:01:00,23.0,10.4,30.42,NNW,342,3.0,3.0,58,0.00,,---,0.00,VWS V14.01,2013-11-27 04:01:00,
2013-11-26 22:06:00,23.0,10.4,30.42,NNW,340,3.0,7.0,58,0.00,,---,0.00,VWS V14.01,2013-11-27 04:06:00,
2013-11-26 22:11:00,22.9,10.0,30.42,NW,325,0.0,7.0,57,0.00,,---,0.00,VWS V14.01,2013-11-27 04:11:00,
2013-11-26 22:16:00,22.9,10.0,30.43,NNW,333,3.0,8.0,57,0.00,,---,0.00,VWS V14.01,2013-11-27 04:16:00,
2013-11-26 22:21:00,22.9,10.0,30.43,NNW,340,4.0,8.0,57,0.00,,---,0.00,VWS V14.01,2013-11-27 04:21:00,
2013-11-26 22:26:00,22.9,10.0,30.43,NNW,340,2.0,8.0,57,0.00,,---,0.00,VWS V14.01,2013-11-27 04:26:00,
2013-11-26 22:30:00,22.7,9.8,30.43,North,350,4.0,8.0,57,0.00,,---,0.00,VWS V14.01,2013-11-27 04:30:00,
2013-11-26 22:31:00,22.7,9.8,30.43,NNW,338,5.0,6.0,57,0.00,,---,0.00,VWS V14.01,2013-11-27 04:31:00,
2013-11-26 22:36:00,22.7,9.8,30.43,North,360,2.0,7.0,57,0.00,,---,0.00,VWS V14.01,2013-11-27 04:36:00,
2013-11-26 22:41:00,22.5,9.6,30.43,NNW,331,1.0,7.0,57,0.00,,---,0.00,VWS V14.01,2013-11-27 04:41:00,
2013-11-26 22:46:00,22.4,9.5,30.43,NNW,336,3.0,7.0,57,0.00,,---,0.00,VWS V14.01,2013-11-27 04:46:00,
2013-11-26 22:51:00,22.2,9.3,30.43,NNW,336,0.0,7.0,57,0.00,,---,0.00,VWS V14.01,2013-11-27 04:51:00,
2013-11-26 22:56:00,22.2,9.3,30.43,NNW,336,0.0,7.0,57,0.00,,---,0.00,VWS V14.01,2013-11-27 04:56:00,
2013-11-26 23:04:00,21.9,9.0,30.43,NNW,344,2.0,2.0,57,0.00,,---,0.00,VWS V14.01,2013-11-27 05:04:00,
2013-11-26 23:09:00,21.8,8.9,30.43,NNW,344,1.0,3.0,57,0.00,,---,0.00,VWS V14.01,2013-11-27 05:09:00,
2013-11-26 23:14:00,21.6,8.7,30.43,NNW,344,0.0,3.0,57,0.00,,---,0.00,VWS V14.01,2013-11-27 05:14:00,
2013-11-26 23:19:00,21.4,8.6,30.43,NNW,339,0.0,3.0,57,0.00,,---,0.00,VWS V14.01,2013-11-27 05:19:00,
2013-11-26 23:24:00,21.3,8.4,30.43,NNW,341,1.0,3.0,57,0.00,,---,0.00,VWS V14.01,2013-11-27 05:24:00,
2013-11-26 23:29:00,21.1,8.3,30.43,North,349,2.0,5.0,57,0.00,,---,0.00,VWS V14.01,2013-11-27 05:29:00,
2013-11-26 23:34:00,21.1,8.3,30.43,NW,325,0.0,6.0,57,0.00,,---,0.00,VWS V14.01,2013-11-27 05:34:00,
2013-11-26 23:39:00,21.0,8.2,30.43,NNW,336,0.0,6.0,57,0.00,,---,0.00,VWS V14.01,2013-11-27 05:39:00,
2013-11-26 23:44:00,20.8,8.0,30.43,NNW,338,0.0,6.0,57,0.00,,---,0.00,VWS V14.01,2013-11-27 05:44:00,
2013-11-26 23:49:00,20.8,8.0,30.43,NW,321,0.0,6.0,57,0.00,,---,0.00,VWS V14.01,2013-11-27 05:49:00,
2013-11-26 23:54:00,20.6,7.8,30.43,NW,321,0.0,6.0,57,0.00,,---,0.00,VWS V14.01,2013-11-27 05:54:00,
2013-11-26 23:59:00,20.6,7.8,30.43,NNW,331,2.0,6.0,57,0.00,,---,0.00,VWS V14.01,2013-11-27 05:59:00,